DCIAN EDJA-EDDS

Flight info

Callsign DCIAN
Flight time N/A
Altitude 20000
Route LUPOL5B LUPOL Z79 SUDEN/N0405F190 Z79 GUPIN/N0399F180 L173 LBU
Aircraft C25C/M-SDE2E3FGHRWXY/LB1

Departure

Time N/A
Airport Memmingen Allgau Airport (EDJA)

Arrival

Time 2026-05-04 12:32
Airport Stuttgart Airport (EDDS)
Time Latitude Longitude Altitude Speed Heading
2026-05-04 12:23 48.90421 9.32365 3985 ft 203 kts 232°
2026-05-04 12:23 48.89573 9.30749 3980 ft 190 kts 233°
2026-05-04 12:23 48.88763 9.29219 3982 ft 192 kts 234°
2026-05-04 12:23 48.87880 9.27566 4005 ft 216 kts 231°
2026-05-04 12:24 48.86892 9.25724 4017 ft 233 kts 233°
2026-05-04 12:24 48.85860 9.23749 4005 ft 244 kts 233°
2026-05-04 12:24 48.84784 9.21736 4009 ft 248 kts 232°
2026-05-04 12:24 48.83685 9.19690 4006 ft 253 kts 232°
2026-05-04 12:25 48.82568 9.17587 4010 ft 259 kts 232°
2026-05-04 12:25 48.81434 9.15443 4000 ft 263 kts 232°
2026-05-04 12:25 48.80269 9.13274 3989 ft 266 kts 232°
2026-05-04 12:25 48.79127 9.11128 4002 ft 264 kts 232°
2026-05-04 12:26 48.77974 9.08963 4010 ft 264 kts 232°
2026-05-04 12:26 48.76816 9.06802 4038 ft 265 kts 232°
2026-05-04 12:26 48.75655 9.04625 3998 ft 265 kts 232°
2026-05-04 12:26 48.74489 9.02464 3997 ft 265 kts 231°
2026-05-04 12:27 48.73323 9.00312 4003 ft 264 kts 231°
2026-05-04 12:27 48.72152 8.98151 4004 ft 268 kts 231°
2026-05-04 12:27 48.70963 8.95957 4004 ft 270 kts 231°
2026-05-04 12:27 48.69777 8.93767 4004 ft 269 kts 231°
2026-05-04 12:28 48.68594 8.91619 3994 ft 267 kts 229°
2026-05-04 12:28 48.67093 8.90051 3976 ft 265 kts 196°
2026-05-04 12:28 48.65301 8.90150 3985 ft 259 kts 159°
2026-05-04 12:28 48.63911 8.91785 3985 ft 256 kts 123°
2026-05-04 12:29 48.63440 8.94307 3991 ft 252 kts 86°
2026-05-04 12:29 48.63932 8.96808 3991 ft 247 kts 64°
2026-05-04 12:29 48.64622 8.99196 4000 ft 248 kts 70°
2026-05-04 12:29 48.65106 9.01716 3778 ft 253 kts 73°
2026-05-04 12:30 48.65572 9.04249 3468 ft 254 kts 72°
2026-05-04 12:30 48.66051 9.06778 3148 ft 246 kts 73°
2026-05-04 12:30 48.66530 9.09219 2805 ft 237 kts 72°
2026-05-04 12:30 48.66966 9.11569 2511 ft 230 kts 72°
2026-05-04 12:31 48.67384 9.13753 2222 ft 194 kts 72°
2026-05-04 12:31 48.67712 9.15515 1982 ft 158 kts 70°
2026-05-04 12:31 48.68012 9.17043 1636 ft 152 kts 73°
2026-05-04 12:31 48.68269 9.18431 1469 ft 125 kts 72°
2026-05-04 12:32 48.68525 9.19768 1368 ft 122 kts 73°
2026-05-04 12:32 48.68925 9.21864 1280 ft 81 kts 74°
2026-05-04 12:32 48.69027 9.22400 1280 ft 32 kts 73°
2026-05-04 12:33 48.69116 9.22538 1279 ft 16 kts 347°
2026-05-04 12:33 48.69167 9.22518 1281 ft 16 kts 344°
2026-05-04 12:33 48.69284 9.22437 1279 ft 18 kts 292°
2026-05-04 12:33 48.69263 9.22264 1281 ft 17 kts 255°
2026-05-04 12:34 48.69229 9.22088 1279 ft 18 kts 254°
2026-05-04 12:34 48.69196 9.21905 1279 ft 18 kts 255°
2026-05-04 12:34 48.69161 9.21719 1280 ft 19 kts 254°
2026-05-04 12:34 48.69126 9.21529 1279 ft 19 kts 252°
2026-05-04 12:35 48.69091 9.21342 1279 ft 15 kts 280°
2026-05-04 12:35 48.69157 9.21274 1279 ft 6 kts 313°
2026-05-04 12:35 48.69145 9.21224 1281 ft 6 kts 210°
2026-05-04 12:35 48.69123 9.21215 1279 ft 0 kts 194°
2026-05-04 12:36 48.69118 9.21213 1279 ft 0 kts 197°